www.pogodaiklimat.ru

ПОГОДА в Порт Хоуп, MI

  • Прогноз погоды в Порт Хоуп
  • Монитор погоды в Порт Хоуп
  • Климат в Порт Хоуп

АРХИВ ПОГОДЫ в Порт Хоуп

Время (UTC), дата Ветер
(напр.,м/с)
 
Видим.   Явления Облачность Т
(С)
Тd
(С)
f
(%)
Тe
(С)
Тes
(С)
Комфортность

P
(гПа)

Po
(гПа)
Тmin
(С)
Tmax
(С)
R
(мм)
SD
(см)
22:51 17.06 В  н/о    н/о  +12.8  +9.4  80  +12  +12    1015.9  994.4  +12.8  +13.9     
23:51 17.06 В  н/о    н/о  +11.7  +8.9  83  +10  +10    1015.9  994.4         
00:51 18.06 ЮВ  н/о    н/о  +11.7  +8.9  83  +10  +10    1016.0  994.4         
01:51 18.06 Ю  н/о    н/о  +10.6  +8.3  86  +9  +9    1016.0  994.4         
02:51 18.06   н/о    н/о  +10.0  +8.9  93  +9  +9    1015.9  994.4         
03:51 18.06   н/о    н/о  +8.9  +8.3  96  +8  +8    1015.8  994.1         
04:51 18.06   н/о    н/о  +8.9  +7.8  93  +8  +8    1015.7  994.1  +8.9  +12.2     
05:51 18.06   н/о    н/о  +8.9  +7.8  93  +8  +8    1015.3  993.8         
06:51 18.06   н/о    н/о  +8.9  +7.8  93  +8  +8    1015.0  993.4         
07:51 18.06   н/о    н/о  +8.3  +7.8  97  +7  +7    1014.8  993.1         
08:51 18.06   н/о    н/о  +8.3  +7.8  97  +7  +7    1014.8  993.1         
09:51 18.06   н/о    н/о  +10.0  +9.4  96  +9  +9    1014.9  993.4         
10:51 18.06 В  н/о    н/о  +12.2  +10.0  86  +12  +12    1014.9  993.4  +8.3  +12.2     
11:51 18.06 В  н/о    н/о  +13.3  +10.6  84  +12  +12    1015.1  993.8         
12:51 18.06 В  н/о    н/о  +13.3  +11.1  87  +12  +12    1015.0  993.4         
13:51 18.06 В  н/о    н/о  +13.9  +11.1  83  +13  +13    1014.9  993.4         
14:51 18.06 В  н/о    н/о  +15.0  +11.7  81  +14  +14    1015.0  993.4         
15:51 18.06 В  н/о    н/о  +15.0  +11.1  77  +14  +14    1014.7  993.1         
16:51 18.06 В  н/о    н/о  +15.6  +11.1  75  +15  +15    1013.9  992.4  +12.2  +16.1     
17:51 18.06 В  н/о    н/о  +15.6  +11.7  78  +15  +15    1013.7  992.4         
18:51 18.06 В  н/о    н/о  +15.6  +11.7  78  +15  +15    1013.3  991.8         
19:51 18.06 В  н/о    н/о  +16.1  +12.2  78  +15  +15    1012.8  991.4         
20:51 18.06 В  н/о    н/о  +16.1  +12.2  78  +15  +15    1012.2  990.8         
21:51 18.06 ЮВ  н/о    н/о  +16.1  +13.3  83  +15  +15    1011.3  990.1         
22:51 18.06 ЮВ  н/о    н/о  +17.8  +11.7  67  +18  +18    1011.1  989.8  +15.0  +18.3     
23:51 18.06 В  н/о    н/о  +15.6  +13.3  86  +14  +14    1011.3  990.1         
00:51 19.06 Ю  н/о    н/о  +15.6  +12.8  83  +15  +15    1011.2  990.1         
01:51 19.06 ЮВ  н/о    н/о  +15.6  +12.2  80  +15  +15    1011.2  990.1         
02:51 19.06 Ю  н/о    н/о  +16.7  +10.0  65  +16  +16    1010.8  989.8         
03:51 19.06 нст  н/о    н/о  +17.2  +10.6  65  +17  +17    1010.6  989.4         
04:51 19.06 нст  н/о    н/о  +17.8  +11.1  65  +18  +18    1010.3  989.1  +15.0  +18.3     
05:51 19.06 нст  н/о    н/о  +16.7  +12.2  75  +17  +17    1009.9  988.8         
06:51 19.06   н/о    н/о  +13.9  +12.2  89  +13  +13    1009.7  988.4         
07:51 19.06   н/о    н/о  +13.9  +12.2  89  +13  +13    1009.5  988.4         
08:51 19.06 В  н/о    н/о  +15.0  +12.2  83  +14  +14    1009.2  988.1         
09:51 19.06 Ю  н/о    н/о  +15.0  +11.1  77  +14  +14    1009.2  988.1         
10:51 19.06 ЮВ  н/о    н/о  +15.6  +11.7  78  +16  +16    1008.7  987.8  +13.3  +17.8     
11:51 19.06 В  н/о    н/о  +15.6  +13.3  86  +16  +16    1008.9  987.8         
12:51 19.06   н/о    н/о  +15.6  +13.3  86  +15  +15    1008.8  987.8         
13:51 19.06   н/о    н/о  +16.7  +13.9  84  +17  +17    1008.5  987.5         
14:51 19.06 нст  н/о    н/о  +15.0  +13.3  90  +14  +14    1008.9  987.8         
15:51 19.06   н/о    н/о  +13.9  +11.1  83  +14  +14    1008.9  987.8         
16:51 19.06 нст  н/о    н/о  +13.3  +10.6  84  +12  +12    1009.0  987.8  +13.3  +17.2  0.3   
17:51 19.06 С  н/о    н/о  +12.8  +10.6  86  +12  +12    1008.5  987.5         
18:51 19.06 В  н/о    н/о  +13.9  +11.1  83  +14  +14    1008.1  986.8         
19:51 19.06 С  н/о    н/о  +15.0  +11.1  77  +15  +15    1007.6  986.5      0.5   
20:51 19.06 С  н/о    н/о  +13.9  +11.7  87  +14  +14    1007.4  986.1         
21:51 19.06 С  н/о    н/о  +12.2  +11.7  97  +10  +10    1007.4  986.1         

 

Местоположение метеостанции Port Hope: широта 44.0219 долгота -82.7931 высота над уровнем моря 179 м.

В архиве по умолчанию представлена погода в Порт Хоуп за последние 1-2 суток. Обновление информации о фактической погоде в базе происходит ежечасно! Архивные данные за месяц целиком и за предыдущие месяцы Вы можете получить, выбрав интересующий диапазон дат из раскрывающегося списка и нажав кнопку "Ввод!".

Внимание! Архив погоды МЕТАР в базе сайта хранится не более 60 дней. Нет смысла пытаться выбрать более раннюю дату.

Внимание! Время в таблицах - всемирное. Для получения местного времени необходимо прибавить поправку, которая в Порт Хоуп равна -5 ч.

Ветер - указаны скорость ветра в м/с и направление, откуда дует ветер: С - северный, СВ - северо-восточный, В - восточный, ЮВ - юго-восточный, Ю - южный, ЮЗ - юго-западный, З - западный, СЗ - северо-западный.
Видимость - горизонтальная дальность видимости в метрах или километрах. При видимости от 1 до 10 км при отсутствии осадков обычно наблюдается дымка, при ухудшении видимости до 1 км и менее - туман. В сухую погоду видимость может ухудшаться дымом, пылью или мглою.
Атмосферные явления - указаны явления, наблюдавшиеся в указанный момент времени.
Облачность - указаны через наклонную черту верхняя и нижняя облачность в баллах и высота нижней границы облаков в метрах. Внимание: облачность, как и прочие метеорологические величины в США измеряются автоматическими метеостанциями. Указанные значения в баллах носят условный характер и показывают процент времени, в течение которого, в среднем, лазерный луч высотомера отражался от облаков обратно.
T - Температура воздуха - температура, измеренная на высоте 2 м над землей.
Td - Температура точки росы - температура, при понижении до которой содержащийся в воздухе водяной пар достигнет насыщения.
f - Относительная влажность воздуха - влажноcть воздуха, измеренная на высоте 2 м над землей.
Te - Эффективная температура - температура, которую ощущает одетый по сезону человек в тени. Характеристика душности погоды. При расчете учитывается влияние влажности воздуха и скорости ветра на теплоощущения человека.
Tes - Эффективная температура на солнце - температура, которую ощущает человек, с поправкой на солнечный нагрев. Характеристика знойности погоды. Зависит от высоты солнца над горизонтом, облачности и скорости ветра. Ночью, в пасмурную погоду, а также при ветре 12 м/с и более поправка равна нулю.
P - Атмосферное давление - приведенное к уровню моря атмосферное давление.
Po - Атмосферное давление - измеренное на уровне метеостанции атмосферное давление.
Tmin - Минимальная температура - минимум температуры воздуха на высоте 2 м над землей.
Tmax - Максимальная температура - максимум температуры воздуха на высоте 2 м над землей.
R - Количество осадков - Количество выпавших осадков за 3 или 6 часов, мм.
SD - Снежный покров - Высота снежного покрова, см.